Weather observations for the past three days for
Haleyville, Posey Field Airport
Metric (Imperial)
Date Time (cdt) Wind (kph) Vis. (km) Weather Sky Cond. Temperature (ºC) Relative Humidity Wind Chill (°C) Heat Index (°C) Pressure Precipitation (cm)
Air Dwpt 6 hour altimeter (cm) sea level (mb) 1 hr 3 hr 6 hr
Max. Min.
05 12:56 SW 7 16.09 A Few Clouds FEW049 22.2 11.1 22.8 13.9 50% 76.12 990.8
05 11:56 SE 15 16.09 Fair CLR 21.7 11.7 53% 76.12 990.7
05 10:56 SW 17 16.09 Fair CLR 21.7 11.7 53% 76.12 990.9
05 09:56 SW 17 16.09 Fair CLR 20.6 12.2 59% 76.15 991.0
05 08:56 SW 15 16.09 Fair CLR 18.9 11.7 63% 76.12 990.7
05 07:56 S 13 16.09 Fair CLR 16.7 11.1 70% 76.1 990.4
05 06:56 SW 11 16.09 Fair CLR 13.9 10.6 16.1 13.3 81% 76.05 989.9
05 05:56 S 11 16.09 Fair CLR 13.3 10 81% 75.97 988.8
05 04:56 S 13 16.09 Fair CLR 13.9 10 78% 75.97 988.8
05 03:56 SW 17 16.09 Fair CLR 15 9.4 69% 75.97 988.9
05 02:56 S 13 16.09 Fair CLR 14.4 8.9 70% 76 989.2
05 01:56 S 9 16.09 Fair CLR 15 8.9 67% 76.05 989.7
05 00:56 S 9 16.09 Fair CLR 16.1 8.9 22.8 15.6 63% 76.05 989.9
04 23:56 S 9 16.09 Fair CLR 16.1 8.9 63% 76.05 989.8
04 22:56 S 7 16.09 Fair CLR 16.7 9.4 62% 76.05 989.8
04 21:56 S 7 16.09 Fair CLR 17.8 10 60% 76.05 989.8
04 20:56 S 6 16.09 Overcast OVC065 17.2 10.6 65% 76.02 989.7
04 19:56 S 9 16.09 Fair CLR 19.4 9.4 53% 76 989.4
04 18:56 S 13 16.09 Fair CLR 22.8 9.4 25.6 22.8 43% 75.97 989.0
04 17:56 S 19 16.09 Mostly Cloudy BKN065 23.9 9.4 40% 25 76 989.2
04 16:56 SW 17 16.09 Partly Cloudy SCT070 25 9.4 37% 26 76.02 989.5
04 15:56 S 24 G 33 16.09 A Few Clouds FEW070 25.6 8.9 35% 26 76.05 989.8
04 14:56 SW 17 G 28 16.09 Fair CLR 25 10 39% 26 76.1 990.7
04 13:56 SW 7 16.09 A Few Clouds FEW055 23.9 10 42% 25 76.15 991.2
04 12:56 S 19 16.09 Fair CLR 24.4 10.6 24.4 11.7 42% 25 76.2 991.9
04 11:56 SW 17 G 26 16.09 Fair CLR 23.3 10.6 45% 76.25 992.6
04 10:56 W 26 16.09 Fair CLR 22.2 10 46% 76.33 993.4
04 09:56 SW 20 16.09 Fair CLR 20 9.4 51% 76.33 993.6
04 08:56 SW 9 16.09 Fair CLR 17.8 8.9 56% 76.35 993.8
04 07:56 S 11 16.09 Fair CLR 13.9 7.8 67% 76.35 993.9
04 06:56 S 6 16.09 Fair CLR 11.7 7.2 11.7 8.9 74% 76.33 993.6
04 05:56 S 11 16.09 Fair CLR 10.6 6.1 74% 76.28 993.0
04 04:56 S 11 16.09 Fair CLR 11.1 5.6 69% 76.28 992.9
04 03:56 S 9 16.09 Fair CLR 10.6 5.6 71% 76.28 992.9
04 02:56 S 7 16.09 Fair CLR 10.6 5.6 71% 76.28 993.0
04 01:56 Calm 16.09 Fair CLR 9.4 6.1 80% 76.35 993.8
04 00:56 S 7 16.09 Fair CLR 10.6 5.6 18.9 8.3 71% 76.35 994.0
03 23:56 Calm 16.09 Fair CLR 9.4 7.2 86% 76.4 994.5
03 22:56 Calm 16.09 Fair CLR 9.4 7.2 86% 76.4 994.7
03 21:56 Calm 16.09 Fair CLR 10 7.2 83% 76.43 994.9
03 20:56 Calm 16.09 Fair CLR 11.1 7.2 77% 76.4 994.7
03 19:56 Calm 16.09 Fair CLR 13.3 7.2 67% 76.38 994.3
03 18:56 W 6 16.09 Fair CLR 18.9 4.4 21.1 17.8 39% 76.38 994.2
03 17:56 W 9 16.09 Fair CLR 20 3.3 33% 76.4 994.6
03 16:56 SW 11 16.09 Fair CLR 20.6 3.9 33% 76.4 994.6
03 15:56 Vrbl 7 16.09 Fair CLR 20 2.8 32% 76.45 995.5
03 14:56 Vrbl 7 16.09 Fair CLR 20 1.7 30% 76.53 996.3
03 13:56 Vrbl 7 16.09 Fair CLR 19.4 2.2 32% 76.63 997.5
03 12:56 Vrbl 7 16.09 Fair CLR 18.3 1.7 18.3 5.6 33% 76.68 998.3
03 11:56 Vrbl 7 16.09 Fair CLR 17.2 1.7 35% 76.73 998.8
03 10:56 N 11 16.09 Fair CLR 16.7 2.2 38% 76.76 999.2
03 09:56 SE 7 16.09 Fair CLR 14.4 4.4 51% 76.76 999.3
03 08:56 Calm 16.09 Fair CLR 12.2 6.1 67% 76.73 999.2
03 07:56 Vrbl 7 16.09 Fair CLR 10 7.2 83% 9 76.73 998.9
03 06:56 Calm 14.48 Fair CLR 5.6 5 7.8 4.4 96% 76.68 998.3
03 05:56 Calm 12.87 Fair CLR 4.4 3.9 97% 76.63 997.7
03 04:56 N 6 16.09 Fair CLR 5 4.4 96% 76.61 997.3
03 03:56 NE 6 16.09 Fair CLR 5.6 4.4 92% 76.61 997.2
03 02:56 Calm 16.09 Fair CLR 6.1 5 93% 76.56 996.8
03 01:56 Calm 16.09 Fair CLR 7.2 5 86% 76.56 996.6
03 00:56 Calm 16.09 Fair CLR 7.2 5 16.1 7.2 86% 76.56 996.6
02 23:56 N 7 16.09 Fair CLR 10 5 71% 9 76.53 996.2
02 22:56 N 7 16.09 Fair CLR 11.1 5 66% 76.5 995.9
02 21:56 N 11 16.09 Fair CLR 11.1 5.6 69% 76.45 995.3
02 20:56 Calm 16.09 Fair CLR 11.1 5.6 69% 76.38 994.4
02 19:56 Calm 16.09 A Few Clouds FEW090 12.8 5.6 62% 76.33 993.6
02 18:56 NW 9 16.09 A Few Clouds FEW090 16.1 3.9 20 16.1 44% 76.28 992.8
02 17:56 N 11 16.09 A Few Clouds FEW080 17.2 3.3 40% 76.28 992.8
02 16:56 NW 17 16.09 Partly Cloudy SCT080 19.4 2.2 32% 76.25 992.7
02 15:56 N 19 G 28 16.09 Partly Cloudy SCT085 18.9 2.2 33% 76.25 992.7
02 14:56 N 20 G 31 16.09 Mostly Cloudy BKN080 18.3 1.7 33% 76.3 993.1
02 13:56 N 24 G 31 16.09 Partly Cloudy SCT075 18.9 2.2 33% 76.3 993.4
Date Time (cdt) Wind (kph) Vis. (km) Weather Sky Cond. Air Dwpt Max. Min. Relative Humidity Wind Chill (°C) Heat Index (°C) altimeter (cm) sea level (mb) 1 hr 3 hr 6 hr
6 hour
Temperature (ºC) Pressure Precipitation (cm)